Location: Prairie State College
(41.5244°N, 87.6382°W)
Time: 20:10:17
(UTC-05:00)

ISS - All Passes

Search period start: 31 March 2015 00:00
Search period end: 10 April 2015 00:00
Orbit: 397 x 405 km, 51.6° (Epoch: 31 March)

Date Brightness Start Highest point End Pass type
(mag) Time Alt. Az. Time Alt. Az. Time Alt. Az.
31 Mar - 00:24:47 10° WNW 00:27:17 20° NNW 00:29:46 10° NNE night (unlit)
31 Mar - 02:02:48 10° NNW 02:04:36 14° N 02:06:24 10° NE night (unlit)
31 Mar - 03:39:00 10° NW 03:41:49 27° NNE 03:44:38 10° E visible
31 Mar - 05:15:13 10° WNW 05:18:20 46° SW 05:21:26 10° SE visible
31 Mar - 21:53:58 10° SSW 21:57:05 45° SE 22:00:14 10° ENE night (unlit)
31 Mar - 23:30:45 10° W 23:33:36 27° NNW 23:36:27 10° NE night (unlit)
01 Apr - 01:08:59 10° NW 01:10:48 14° N 01:12:37 10° NNE night (unlit)
01 Apr - 02:45:40 10° NNW 02:48:07 20° NNE 02:50:35 10° ENE night (unlit)
01 Apr - 04:21:39 10° NW 04:24:54 86° NE 04:28:07 10° SE visible
01 Apr - 06:00:15 10° WSW 06:00:52 10° SW 06:01:20 10° SW visible
01 Apr - 21:01:03 10° S 21:03:40 23° SE 21:06:20 10° E visible
01 Apr - 22:36:48 10° WSW 22:39:56 42° NNW 22:43:03 10° NE night (unlit)
02 Apr - 00:14:53 10° NW 00:16:57 15° N 00:19:00 10° NNE night (unlit)
02 Apr - 01:52:12 10° NNW 01:54:18 16° N 01:56:24 10° NE night (unlit)
02 Apr - 03:28:09 10° NW 03:31:18 46° NNE 03:34:26 10° ESE night (unlit)
02 Apr - 05:05:01 10° W 05:07:30 20° SW 05:09:57 10° S visible
02 Apr - 20:09:00 10° SSE 20:10:15 12° SE 20:11:36 10° ESE visible
02 Apr - 21:43:01 10° WSW 21:46:15 78° NW 21:49:31 10° NE visible
02 Apr - 23:20:39 10° WNW 23:23:04 19° NNW 23:25:28 10° NNE night (unlit)
03 Apr - 00:58:32 10° NNW 01:00:22 14° N 01:02:13 10° NE night (unlit)
03 Apr - 02:34:39 10° NW 02:37:33 29° NNE 02:40:26 10° E night (unlit)
03 Apr - 04:10:56 10° WNW 04:14:00 40° SW 04:17:02 10° SSE night (unlit)
03 Apr - 20:49:26 10° SW 20:52:36 53° SE 20:55:47 10° ENE visible
03 Apr - 22:26:22 10° W 22:29:09 25° NNW 22:31:56 10° NE visible
04 Apr - 00:04:34 10° NW 00:06:22 14° N 00:08:10 10° NNE night (unlit)
04 Apr - 01:41:07 10° NNW 01:43:39 21° NNE 01:46:12 10° ENE night (unlit)
04 Apr - 03:17:07 10° NW 03:20:21 82° SW 03:23:35 10° SE night (unlit)
04 Apr - 19:56:11 10° SSW 19:58:57 26° SE 20:01:45 10° ENE visible
04 Apr - 21:32:10 10° W 21:35:14 38° NNW 21:38:19 10° NE visible
04 Apr - 23:10:17 10° NW 23:12:17 15° N 23:14:16 10° NNE night (unlit)
05 Apr - 00:47:28 10° NNW 00:49:37 16° NNE 00:51:48 10° NE night (unlit)
05 Apr - 02:23:23 10° NW 02:26:34 52° NNE 02:29:44 10° ESE night (unlit)
05 Apr - 04:00:23 10° W 04:02:42 18° SW 04:04:57 10° S night (unlit)
05 Apr - 19:03:39 10° SSE 19:05:18 14° SE 19:07:03 10° E daylight
05 Apr - 20:38:06 10° WSW 20:41:20 68° NNW 20:44:35 10° NE visible
05 Apr - 22:15:49 10° WNW 22:18:10 18° NNW 22:20:30 10° NNE visible
05 Apr - 23:53:37 10° NNW 23:55:29 14° N 23:57:22 10° NE night (unlit)
06 Apr - 01:29:39 10° NW 01:32:37 31° NNE 01:35:33 10° E night (unlit)
06 Apr - 03:06:00 10° WNW 03:09:00 35° SW 03:11:58 10° SSE night (unlit)
06 Apr - 19:44:15 10° SW 19:47:27 60° SE 19:50:40 10° ENE visible
06 Apr - 21:21:19 10° WNW 21:24:02 24° NNW 21:26:44 10° NE visible
06 Apr - 22:59:28 10° NW 23:01:15 14° N 23:03:02 10° NNE visible
07 Apr - 00:35:54 10° NW 00:38:30 22° NNE 00:41:06 10° ENE night (unlit)
07 Apr - 02:11:55 10° WNW 02:15:10 73° SW 02:18:22 10° SE night (unlit)
07 Apr - 18:50:42 10° SSW 18:53:34 29° SE 18:56:28 10° ENE daylight
07 Apr - 20:26:51 10° W 20:29:53 35° NNW 20:32:55 10° NE visible
07 Apr - 22:05:01 10° NW 22:06:57 15° N 22:08:53 10° NNE visible
07 Apr - 23:42:03 10° NNW 23:44:16 17° NNE 23:46:30 10° ENE night (unlit)
08 Apr - 01:17:57 10° NW 01:21:09 58° NNE 01:24:21 10° ESE night (unlit)
08 Apr - 02:55:08 10° W 02:57:14 16° SW 02:59:16 10° S night (unlit)
08 Apr - 17:57:46 10° SSE 17:59:41 15° SE 18:01:42 10° E daylight
08 Apr - 19:32:32 10° WSW 19:35:45 61° NNW 19:38:59 10° NE daylight
08 Apr - 21:10:20 10° WNW 21:12:37 17° NNW 21:14:53 10° NNE visible
08 Apr - 22:48:00 10° NNW 22:49:55 15° N 22:51:49 10° NE visible
09 Apr - 00:24:00 10° NW 00:27:00 33° NNE 00:29:59 10° E night (unlit)
09 Apr - 02:00:24 10° WNW 02:03:20 31° SW 02:06:13 10° SSE night (unlit)
09 Apr - 18:38:24 10° SW 18:41:38 68° SE 18:44:52 10° ENE daylight
09 Apr - 20:15:35 10° WNW 20:18:15 22° NNW 20:20:53 10° NE visible
09 Apr - 21:53:41 10° NNW 21:55:28 14° N 21:57:15 10° NNE visible
09 Apr - 23:30:01 10° NW 23:32:41 23° NNE 23:35:21 10° ENE visible
